Tracking 20093 objects as of 14-Dec-2019
HD Live streaming from Space Station
objects crossing your sky now

SL-8 DEB

Track SL-8 DEB now!
10-day predictions


NORAD ID: 21109
Int'l Code: 1991-009K
Perigee: 1,467.2 km
Apogee: 1,730.8 km
Inclination: 74.0 °
Period: 118.0 minutes
Semi major axis: 7969 km
RCS: 0.6993 m2 (medium)
Launch date: February 12, 1991
Source: Commonwealth of Independent States (former USSR) (CIS)
Launch site: PLESETSK MISSILE AND SPACE COMPLEX (PKMTR)

Note: This is SATELLITE DEBRIS
aabbcc
Your satellite tracking list
Your tracking list is empty




NASA's NSSDC Master Catalog

Two Line Element Set (TLE):
1 21109U 91009K   19347.90098052 -.00000331 +00000-0 -29301-2 0  9995
2 21109 074.0288 306.5413 0165385 097.6161 358.7768 12.20157539283365
Source of the keplerian elements: AFSPC